CW6981 Weather Reports


time (UTC)temp
C
wind
direction
speed
KPH
gust
KPH
rain 1hr
cm
rain 24hr
cm
rain mn
cm
humidity
%
barometer
mb
20260906222039 32 77 1.6 8.0 0.00 0.00 0.00 35 1030.3
20260906221530 32 65 0.0 8.0 0.00 0.00 0.00 35 1030.4
20260906221040 32 78 1.6 8.0 0.00 0.00 0.00 35 1030.5
20260906220551 32 326 1.6 6.4 0.00 0.00 0.00 36 1030.5
20260906220039 32 107 1.6 9.7 0.00 0.00 0.00 36 1030.5
20260906215530 32 49 3.2 9.7 0.00 0.00 0.00 36 1030.6
20260906215042 31 68 1.6 6.4 0.00 0.00 0.00 37 1030.6
20260906214532 31 73 1.6 6.4 0.00 0.00 0.00 35 1030.7
20260906214039 31 86 0.0 6.4 0.00 0.00 0.00 36 1030.8
20260906213530 31 106 3.2 6.4 0.00 0.00 0.00 36 1030.9
20260906213100 31 79 3.2 8.0 0.00 0.00 0.00 37 1031.0
20260906212550 31 55 1.6 8.0 0.00 0.00 0.00 36 1031.1
20260906212043 31 79 0.0 6.4 0.00 0.00 0.00 36 1031.1
20260906211533 31 80 1.6 8.0 0.00 0.00 0.00 37 1031.3
20260906211040 31 52 3.2 8.0 0.00 0.00 0.00 37 1031.3
20260906210552 31 272 1.6 6.4 0.00 0.00 0.00 37 1031.4
20260906210041 31 60 1.6 6.4 0.00 0.00 0.00 38 1031.6
20260906205523 31 58 1.6 8.0 0.00 0.00 0.00 37 1031.6
20260906205036 31 48 1.6 8.0 0.00 0.00 0.00 39 1031.7
20260906204529 30 65 3.2 9.7 0.00 0.00 0.00 37 1031.8
20260906204039 30 58 4.8 9.7 0.00 0.00 0.00 38 1032.0
20260906203529 30 60 0.0 6.4 0.00 0.00 0.00 37 1031.9
20260906203039 30 243 1.6 6.4 0.00 0.00 0.00 39 1032.0
20260906202529 30 144 0.0 9.7 0.00 0.00 0.00 40 1032.0
20260906202041 30 73 1.6 9.7 0.00 0.00 0.00 39 1032.0
20260906201530 30 79 4.8 8.0 0.00 0.00 0.00 40 1032.1
20260906201040 30 303 0.0 4.8 0.00 0.00 0.00 41 1032.1
20260906200532 29 109 3.2 4.8 0.00 0.00 0.00 41 1032.2
20260906200104 29 91 1.6 3.2 0.00 0.00 0.00 41 1032.2
20260906195553 29 100 1.6 11.3 0.00 0.00 0.00 40 1032.5
20260906195040 29 75 3.2 11.3 0.00 0.00 0.00 41 1032.5
20260906194547 28 53 0.0 6.4 0.00 0.00 0.00 41 1032.6
20260906194034 28 58 0.0 8.0 0.00 0.00 0.00 42 1032.7
20260906193606 28 58 4.8 8.0 0.00 0.00 0.00 41 1032.8
20260906193053 28 79 1.6 6.4 0.00 0.00 0.00 42 1032.9
20260906192534 28 268 1.6 8.0 0.00 0.00 0.00 43 1032.9
20260906192047 28 64 3.2 8.0 0.00 0.00 0.00 44 1033.0
20260906191526 28 270 1.6 4.8 0.00 0.00 0.00 44 1033.0
20260906191040 28 107 1.6 3.2 0.00 0.00 0.00 44 1033.1
20260906190612 28 88 1.6 8.0 0.00 0.00 0.00 44 1033.2
20260906190032 27 83 1.6 8.0 0.00 0.00 0.00 44 1033.3
20260906185543 27 38 1.6 4.8 0.00 0.00 0.00 45 1033.4
20260906185054 27 51 1.6 6.4 0.00 0.00 0.00 46 1033.5
20260906184535 27 91 0.0 6.4 0.00 0.00 0.00 45 1033.6
20260906184045 27 110 1.6 4.8 0.00 0.00 0.00 46 1033.6
20260906183538 27 65 1.6 4.8 0.00 0.00 0.00 45 1033.8
20260906183046 27 62 3.2 6.4 0.00 0.00 0.00 46 1033.8
20260906182528 27 69 1.6 6.4 0.00 0.00 0.00 47 1033.9
20260906182102 26 57 1.6 6.4 0.00 0.00 0.00 48 1034.2
20260906181534 26 60 3.2 6.4 0.00 0.00 0.00 49 1034.2
20260906181044 26 283 1.6 4.8 0.00 0.00 0.00 49 1034.3
20260906180538 26 67 1.6 6.4 0.00 0.00 0.00 51 1034.3
20260906180045 26 83 0.0 6.4 0.00 0.00 0.00 51 1034.4
20260906175537 26 91 3.2 6.4 0.00 0.00 0.00 53 1034.5
20260906175028 25 73 1.6 6.4 0.00 0.00 0.00 54 1034.6
20260906174537 25 59 1.6 4.8 0.00 0.00 0.00 55 1034.7
20260906174028 25 59 0.0 4.8 0.00 0.00 0.00 54 1034.8
20260906173541 25 59 0.0 6.4 0.00 0.00 0.00 54 1034.9
20260906173032 25 251 0.0 6.4 0.00 0.00 0.00 55 1035.0
20260906172544 25 76 0.0 3.2 0.00 0.00 0.00 55 1035.2
20260906172037 25 266 0.0 3.2 0.00 0.00 0.00 54 1035.3
20260906171528 25 11 1.6 4.8 0.00 0.00 0.00 55 1035.5
20260906171038 25 11 1.6 4.8 0.00 0.00 0.00 53 1035.6
20260906170531 25 356 0.0 3.2 0.00 0.00 0.00 53 1035.6
20260906170043 25 356 0.0 3.2 0.00 0.00 0.00 53 1035.7
20260906165535 25 356 1.6 3.2 0.00 0.00 0.00 54 1035.7
20260906165031 25 263 1.6 4.8 0.00 0.00 0.00 54 1035.8
20260906164535 25 50 1.6 4.8 0.00 0.00 0.00 53 1035.8
20260906164026 25 50 1.6 4.8 0.00 0.00 0.00 54 1035.8
20260906163541 25 50 1.6 4.8 0.00 0.00 0.00 53 1035.8
20260906163050 25 50 0.0 3.2 0.00 0.00 0.00 52 1035.9
20260906162541 25 41 0.0 3.2 0.00 0.00 0.00 54 1036.0
20260906162054 25 44 0.0 3.2 0.00 0.00 0.00 55 1035.0
20260906161528 24 270 0.0 4.8 0.00 0.00 0.00 57 1035.0
20260906161038 24 266 1.6 4.8 0.00 0.00 0.00 58 1035.1
20260906160533 23 69 0.0 3.2 0.00 0.00 0.00 59 1035.1
20260906160043 23 69 1.6 3.2 0.00 0.00 0.00 62 1035.1
20260906155537 22 65 0.0 1.6 0.00 0.00 0.00 63 1035.1
20260906155108 22 79 0.0 3.2 0.00 0.00 0.00 64 1035.1
20260906154556 21 69 0.0 6.4 0.00 0.00 0.00 66 1035.3
20260906154045 21 53 3.2 6.4 0.00 0.00 0.00 66 1035.2
20260906153552 21 84 0.0 3.2 0.00 0.00 0.00 66 1035.1
20260906153033 21 85 0.0 3.2 0.00 0.00 0.00 66 1035.2
20260906152549 20 85 0.0 3.2 0.00 0.00 0.00 66 1035.3
20260906152059 20 227 0.0 1.6 0.00 0.00 0.00 67 1035.2
20260906151606 20 229 0.0 1.6 0.00 0.00 0.00 67 1035.3
20260906151057 20 229 0.0 1.6 0.00 0.00 0.00 66 1035.4
20260906150528 20 229 0.0 1.6 0.00 0.00 0.00 67 1035.5
20260906150036 19 229 0.0 1.6 0.00 0.00 0.00 68 1035.5
20260906145528 19 229 0.0 1.6 0.00 0.00 0.00 69 1035.6
20260906145040 18 229 0.0 1.6 0.00 0.00 0.00 71 1035.5
20260906144552 18 229 0.0 1.6 0.00 0.00 0.00 72 1035.6
20260906144033 18 229 0.0 1.6 0.00 0.00 0.00 73 1035.6
20260906143524 18 229 0.0 0.0 0.00 0.00 0.00 74 1035.7
20260906143038 18 229 0.0 1.6 0.00 0.00 0.00 75 1035.7
20260906142527 17 229 0.0 1.6 0.00 0.00 0.00 75 1035.7
20260906142037 17 229 0.0 3.2 0.00 0.00 0.00 75 1035.7
20260906141545 17 229 0.0 3.2 0.00 0.00 0.00 77 1035.8
20260906141036 17 225 0.0 0.0 0.00 0.00 0.00 78 1035.7
20260906140532 17 225 0.0 0.0 0.00 0.00 0.00 77 1035.8
20260906140041 17 225 0.0 0.0 0.00 0.00 0.00 77 1035.8
20260906135531 16 225 0.0 0.0 0.00 0.00 0.00 78 1035.8
20260906135043 16 225 0.0 0.0 0.00 0.00 0.00 78 1035.8
20260906134552 16 225 0.0 0.0 0.00 0.00 0.00 77 1035.9
20260906134042 16 225 0.0 0.0 0.00 0.00 0.00 77 1035.9
20260906133534 16 225 0.0 0.0 0.00 0.00 0.00 77 1035.8
20260906133044 16 225 0.0 0.0 0.00 0.00 0.00 77 1035.8
20260906132535 16 225 0.0 0.0 0.00 0.00 0.00 76 1035.7
20260906132051 16 225 0.0 0.0 0.00 0.00 0.00 76 1035.5
20260906131532 16 225 0.0 0.0 0.00 0.00 0.00 76 1035.5
20260906131044 16 225 0.0 0.0 0.00 0.00 0.00 76 1035.5
20260906130537 17 225 0.0 0.0 0.00 0.00 0.00 76 1035.4
20260906130027 17 225 0.0 0.0 0.00 0.00 0.00 75 1035.3
20260906125538 17 225 0.0 0.0 0.00 0.00 0.00 75 1035.3
20260906125033 17 225 0.0 0.0 0.00 0.00 0.00 74 1035.2
20260906124523 17 225 0.0 0.0 0.00 0.00 0.00 74 1035.1
20260906124057 17 225 0.0 0.0 0.00 0.00 0.00 74 1035.1
20260906123529 17 225 0.0 0.0 0.00 0.00 0.00 74 1035.1
20260906123058 17 225 0.0 0.0 0.00 0.00 0.00 73 1035.2
20260906122532 17 225 0.0 0.0 0.00 0.00 0.00 73 1035.1
20260906122104 18 225 0.0 0.0 0.00 0.00 0.00 73 1035.3
20260906121534 18 225 0.0 0.0 0.00 0.00 0.00 72 1035.3
20260906121025 18 225 0.0 0.0 0.00 0.00 0.00 71 1035.2
20260906120533 18 225 0.0 0.0 0.00 0.00 0.00 71 1035.2
20260906120025 18 225 0.0 0.0 0.00 0.00 0.00 71 1035.3
20260906115538 18 225 0.0 0.0 0.00 0.00 0.00 70 1035.3
20260906115036 18 225 0.0 0.0 0.00 0.00 0.00 70 1035.2
20260906114525 18 225 0.0 0.0 0.00 0.00 0.00 69 1035.2
20260906114057 18 225 0.0 0.0 0.00 0.00 0.00 69 1035.3
20260906113533 18 225 0.0 0.0 0.00 0.00 0.00 69 1035.3
20260906113043 18 225 0.0 0.0 0.00 0.00 0.00 68 1035.3
20260906112536 18 225 0.0 1.6 0.00 0.00 0.00 68 1035.2
20260906112027 18 225 0.0 1.6 0.00 0.00 0.00 68 1035.2
20260906111538 18 225 0.0 1.6 0.00 0.00 0.00 67 1035.1
20260906111029 18 225 0.0 1.6 0.00 0.00 0.00 67 1034.9
20260906110543 18 225 0.0 1.6 0.00 0.00 0.00 66 1034.9
20260906110052 18 225 0.0 1.6 0.00 0.00 0.00 66 1034.9
20260906105534 18 225 0.0 1.6 0.00 0.00 0.00 65 1034.9
20260906105048 18 225 0.0 1.6 0.00 0.00 0.00 66 1034.7
20260906104538 18 225 0.0 1.6 0.00 0.00 0.00 66 1034.5
20260906104054 18 129 0.0 0.0 0.00 0.00 0.00 66 1034.8
20260906103544 18 129 0.0 1.6 0.00 0.00 0.00 64 1034.8
20260906103032 18 129 0.0 1.6 0.00 0.00 0.00 64 1034.8
20260906102543 18 129 0.0 1.6 0.00 0.00 0.00 64 1034.7
20260906102036 18 129 0.0 1.6 0.00 0.00 0.00 63 1034.5
20260906101526 18 129 0.0 1.6 0.00 0.00 0.00 62 1034.6
20260906101037 18 129 0.0 1.6 0.00 0.00 0.00 62 1034.3
20260906100532 18 129 0.0 0.0 0.00 0.00 0.00 62 1034.4
20260906100040 18 129 0.0 0.0 0.00 0.00 0.00 63 1034.5
20260906095551 18 129 0.0 1.6 0.00 0.00 0.00 64 1034.5
20260906095034 18 129 0.0 1.6 0.00 0.00 0.00 63 1034.6
20260906094525 18 129 0.0 1.6 0.00 0.00 0.00 62 1034.6
20260906094038 19 129 0.0 0.0 0.00 0.00 0.00 62 1034.7
20260906093533 19 129 0.0 0.0 0.00 0.00 0.00 62 1034.7
20260906093042 19 129 0.0 0.0 0.00 0.00 0.00 62 1034.6
20260906092533 20 129 0.0 0.0 0.00 0.00 0.00 62 1034.7
20260906092104 20 129 0.0 1.6 0.00 0.00 0.00 62 1034.6
20260906091532 20 129 0.0 1.6 0.00 0.00 0.00 61 1034.6
20260906091043 20 129 0.0 0.0 0.00 0.00 0.00 60 1034.4
20260906090535 20 129 0.0 0.0 0.00 0.00 0.00 61 1034.4
20260906090045 20 129 0.0 0.0 0.00 0.00 0.00 60 1034.4
20260906085530 20 129 0.0 0.0 0.00 0.00 0.00 58 1034.3
20260906085043 21 129 0.0 0.0 0.00 0.00 0.00 58 1034.4
20260906084532 21 129 0.0 0.0 0.00 0.00 0.00 58 1034.3
20260906084043 21 129 0.0 0.0 0.00 0.00 0.00 57 1034.2
20260906083535 21 129 0.0 0.0 0.00 0.00 0.00 57 1034.2
20260906083059 21 129 0.0 0.0 0.00 0.00 0.00 57 1034.1
20260906082529 21 129 0.0 0.0 0.00 0.00 0.00 56 1034.2
20260906082043 22 129 0.0 0.0 0.00 0.00 0.00 55 1034.2
20260906081551 22 129 0.0 0.0 0.00 0.00 0.00 55 1034.3
20260906081042 22 129 0.0 0.0 0.00 0.00 0.00 52 1034.2
20260906080535 22 129 0.0 0.0 0.00 0.00 0.00 52 1034.2
20260906080024 22 129 0.0 1.6 0.00 0.00 0.00 52 1034.3
20260906075536 22 129 0.0 1.6 0.00 0.00 0.00 53 1034.3
20260906075050 22 129 0.0 3.2 0.00 0.00 0.00 50 1034.3
20260906074559 22 33 1.6 3.2 0.00 0.00 0.00 50 1034.2
20260906074032 22 356 0.0 1.6 0.00 0.00 0.00 51 1034.2
20260906073525 22 356 0.0 1.6 0.00 0.00 0.00 51 1034.2
20260906073059 22 356 0.0 1.6 0.00 0.00 0.00 51 1034.2
20260906072552 22 339 0.0 1.6 0.00 0.00 0.00 51 1034.1
20260906072048 22 296 0.0 3.2 0.00 0.00 0.00 51 1034.1
20260906071535 22 281 0.0 3.2 0.00 0.00 0.00 50 1034.1
20260906071027 22 251 0.0 1.6 0.00 0.00 0.00 51 1034.1
20260906070600 22 251 0.0 1.6 0.00 0.00 0.00 51 1034.1
20260906070051 22 251 0.0 1.6 0.00 0.00 0.00 51 1034.2
20260906065543 22 251 0.0 1.6 0.00 0.00 0.00 51 1034.2
20260906065057 22 257 0.0 0.0 0.00 0.00 0.00 52 1034.1
20260906064524 22 257 0.0 0.0 0.00 0.00 0.00 51 1034.0
20260906064036 22 257 0.0 1.6 0.00 0.00 0.00 52 1034.1
20260906063529 23 257 0.0 1.6 0.00 0.00 0.00 52 1034.3
20260906063040 23 257 0.0 0.0 0.00 0.00 0.00 52 1034.5
20260906062535 23 257 0.0 1.6 0.00 0.00 0.00 52 1034.6
20260906062033 23 257 0.0 1.6 0.00 0.00 0.00 51 1034.6
20260906061547 23 256 0.0 1.6 0.00 0.00 0.00 50 1034.6
20260906061029 23 256 0.0 1.6 0.00 0.00 0.00 50 1034.7
20260906060542 23 256 0.0 1.6 0.00 0.00 0.00 49 1034.8
20260906060052 23 257 0.0 1.6 0.00 0.00 0.00 48 1034.8
20260906055536 23 254 0.0 0.0 0.00 0.00 0.00 47 1035.0
20260906055029 23 254 0.0 1.6 0.00 0.00 0.00 47 1034.9
20260906054542 23 254 0.0 3.2 0.00 0.00 0.00 47 1034.9
20260906054034 23 231 0.0 3.2 0.00 0.00 0.00 47 1034.9
20260906053601 24 191 0.0 3.2 0.00 0.00 0.00 47 1035.0
20260906053052 24 272 0.0 4.8 0.00 0.00 0.00 47 1035.0
20260906052535 24 331 1.6 4.8 0.00 0.00 0.00 46 1034.1
20260906052029 24 31 0.0 1.6 0.00 0.00 0.00 46 1034.0
20260906051540 24 31 0.0 1.6 0.00 0.00 0.00 46 1034.0
20260906051053 24 50 0.0 3.2 0.00 0.00 0.00 46 1034.1
20260906050525 24 262 0.0 4.8 0.00 0.00 0.00 46 1034.3
20260906050039 23 265 1.6 4.8 0.00 0.00 0.00 45 1034.5
20260906045531 23 96 0.0 1.6 0.00 0.00 0.00 45 1034.4
20260906045041 23 87 0.0 1.6 0.00 0.00 0.00 45 1034.4
20260906044533 23 88 0.0 1.6 0.00 0.00 0.00 45 1034.3
20260906044045 23 88 0.0 1.6 0.00 0.00 0.00 47 1034.6
20260906043537 23 88 0.0 1.6 0.00 0.00 0.00 45 1034.7
20260906043026 23 88 0.0 0.0 0.00 0.00 0.00 44 1035.6
20260906042534 23 88 0.0 1.6 0.00 0.00 0.00 45 1035.5
20260906042027 23 88 0.0 3.2 0.00 0.00 0.00 45 1035.3
20260906041537 23 88 0.0 3.2 0.00 0.00 0.00 45 1035.1
20260906041027 22 88 1.6 3.2 0.00 0.00 0.00 46 1034.9
20260906040543 23 214 0.0 1.6 0.00 0.00 0.00 48 1034.5
20260906040032 23 214 0.0 0.0 0.00 0.00 0.00 49 1034.2
20260906035541 23 214 0.0 0.0 0.00 0.00 0.00 49 1034.0
20260906035032 23 214 0.0 0.0 0.00 0.00 0.00 48 1033.9
20260906034523 23 214 0.0 0.0 0.00 0.00 0.00 47 1033.8
20260906034038 23 214 0.0 0.0 0.00 0.00 0.00 45 1033.7
20260906033531 24 214 0.0 0.0 0.00 0.00 0.00 45 1033.6
20260906033036 24 214 0.0 0.0 0.00 0.00 0.00 44 1033.5
20260906032526 25 214 0.0 0.0 0.00 0.00 0.00 44 1033.4
20260906032035 25 214 0.0 0.0 0.00 0.00 0.00 43 1033.4
20260906031524 25 214 0.0 0.0 0.00 0.00 0.00 42 1033.4
20260906031038 25 214 0.0 0.0 0.00 0.00 0.00 43 1033.3
20260906030531 25 214 0.0 0.0 0.00 0.00 0.00 41 1033.2
20260906030041 26 214 0.0 0.0 0.00 0.00 0.00 42 1033.1
20260906025531 26 214 0.0 0.0 0.00 0.00 0.00 41 1033.0
20260906025029 26 214 0.0 0.0 0.00 0.00 0.00 39 1033.0
20260906024540 26 214 0.0 0.0 0.00 0.00 0.00 38 1032.9
20260906024030 27 214 0.0 1.6 0.00 0.00 0.00 39 1032.8
20260906023602 27 214 0.0 1.6 0.00 0.00 0.00 39 1032.8
20260906023032 27 214 0.0 0.0 0.00 0.00 0.00 38 1032.7
20260906022543 27 214 0.0 0.0 0.00 0.00 0.00 35 1032.7
20260906022036 27 214 0.0 1.6 0.00 0.00 0.00 33 1032.6
20260906021526 27 214 0.0 1.6 0.00 0.00 0.00 33 1032.5
20260906021040 28 214 0.0 0.0 0.00 0.00 0.00 32 1032.5
20260906020538 28 214 0.0 1.6 0.00 0.00 0.00 32 1032.5
20260906020027 28 214 0.0 1.6 0.00 0.00 0.00 32 1032.4
20260906015559 28 214 0.0 1.6 0.00 0.00 0.00 32 1032.3
20260906015031 28 270 0.0 1.6 0.00 0.00 0.00 32 1032.3
20260906014523 28 270 0.0 4.8 0.00 0.00 0.00 31 1032.2
20260906014037 28 270 1.6 4.8 0.00 0.00 0.00 31 1032.2
20260906013530 28 259 1.6 4.8 0.00 0.00 0.00 32 1032.1
20260906013038 28 261 0.0 4.8 0.00 0.00 0.00 33 1032.0
20260906012550 29 261 0.0 4.8 0.00 0.00 0.00 33 1032.0
20260906012026 29 246 0.0 1.6 0.00 0.00 0.00 31 1032.0
20260906011558 30 274 0.0 4.8 0.00 0.00 0.00 31 1032.0
20260906011048 30 276 1.6 4.8 0.00 0.00 0.00 30 1031.9
20260906010538 30 154 0.0 0.0 0.00 0.00 0.00 32 1031.9
20260906010030 30 154 0.0 0.0 0.00 0.00 0.00 29 1031.9
20260906005541 30 154 0.0 0.0 0.00 0.00 0.00 29 1031.8
20260906005034 31 154 0.0 0.0 0.00 0.00 0.00 29 1031.9
20260906004525 31 154 0.0 0.0 0.00 0.00 0.00 29 1032.0
20260906004035 31 154 0.0 0.0 0.00 0.00 0.00 29 1032.0
20260906003527 31 154 0.0 0.0 0.00 0.00 0.00 28 1032.0
20260906003039 31 154 0.0 0.0 0.00 0.00 0.00 28 1032.1
20260906002532 31 154 0.0 0.0 0.00 0.00 0.00 28 1031.9
20260906002107 32 154 0.0 0.0 0.00 0.00 0.00 28 1031.9
20260906001536 32 154 0.0 0.0 0.00 0.00 0.00 29 1031.9
20260906001029 32 154 0.0 0.0 0.00 0.00 0.00 27 1031.9
20260906000539 32 154 0.0 1.6 0.00 0.00 0.00 27 1031.9
20260906000027 32 154 0.0 1.6 0.00 0.00 0.00 25 1031.9
20260905235541 32 155 0.0 0.0 0.00 0.00 0.00 26 1031.9
20260905235033 32 155 0.0 1.6 0.00 0.00 0.00 26 1031.8
20260905234543 32 155 0.0 1.6 0.00 0.00 0.00 26 1031.9
20260905234037 32 155 0.0 1.6 0.00 0.00 0.00 25 1031.8
20260905233530 32 141 0.0 3.2 0.00 0.00 0.00 25 1031.7
20260905233040 32 141 0.0 3.2 0.00 0.00 0.00 25 1031.7
20260905232532 32 117 0.0 3.2 0.00 0.00 0.00 25 1031.7
20260905232044 32 28 0.0 1.6 0.00 0.00 0.00 26 1031.7
20260905231534 32 32 1.6 1.6 0.00 0.00 0.00 24 1031.7
20260905231028 32 23 0.0 1.6 0.00 0.00 0.00 26 1031.7
20260905230526 32 28 0.0 1.6 0.00 0.00 0.00 26 1031.8
20260905230042 32 29 0.0 1.6 0.00 0.00 0.00 26 1031.8
20260905225533 32 39 0.0 1.6 0.00 0.00 0.00 26 1031.7
20260905225026 32 39 0.0 3.2 0.00 0.00 0.00 27 1031.7
20260905224558 32 73 0.0 3.2 0.00 0.00 0.00 27 1031.8
20260905224046 32 71 1.6 3.2 0.00 0.00 0.00 26 1031.7
20260905223535 32 101 0.0 3.2 0.00 0.00 0.00 26 1031.8
20260905223043 32 102 0.0 4.8 0.00 0.00 0.00 25 1031.8
20260905222534 32 270 1.6 4.8 0.00 0.00 0.00 26 1031.8